Location: Unspecified
(58.9933°N, 5.6375°E)
Time: 22:11:10
(UTC+01:00)

Cosmos 1674 - Visible Passes

Search period start: 09 December 2016 00:00
Search period end: 19 December 2016 00:00
Orbit: 499 x 525 km, 82.5° (Epoch: 09 December)

Date Brightness Start Highest point End Pass type
(mag) Time Alt. Az. Time Alt. Az. Time Alt. Az.
10 Dec 5.3 08:14:02 10° NNE 08:15:19 11° NE 08:16:35 10° ENE visible
15 Dec 4.6 08:27:07 10° N 08:30:22 26° ENE 08:33:37 10° ESE visible
16 Dec 4.8 08:10:58 10° N 08:14:03 23° ENE 08:17:08 10° ESE visible
17 Dec 5.0 07:54:50 10° N 07:57:43 20° ENE 08:00:36 10° ESE visible
18 Dec 5.2 07:38:43 10° NNE 07:41:22 18° ENE 07:44:01 10° ESE visible
